Time,TemperatureF,DewpointF,PressureIn,WindDirection,WindDirectionDegrees,WindSpeedMPH,WindSpeedGustMPH,Humidity,HourlyPrecipIn,Conditions,Clouds,dailyrainin,SoftwareType,DateUTC
2013-06-14 00:07:00,76.5,62.9,29.85,South,180,0.0,-999.0,63,-99.99,,,0.00,Acu-Link.com,2013-06-14 05:07:00,
2013-06-14 00:23:00,75.7,62.6,29.85,SSE,157,0.0,-999.0,64,-99.99,,,0.00,Acu-Link.com,2013-06-14 05:23:00,
2013-06-14 00:38:00,75.4,62.8,29.86,SSE,157,0.0,-999.0,65,-99.99,,,0.00,Acu-Link.com,2013-06-14 05:38:00,
2013-06-14 00:53:00,74.8,63.5,29.87,SE,135,0.0,-999.0,68,-99.99,,,0.00,Acu-Link.com,2013-06-14 05:53:00,
2013-06-14 01:09:00,74.7,63.8,29.87,SSE,157,0.0,-999.0,69,-99.99,,,0.00,Acu-Link.com,2013-06-14 06:09:00,
2013-06-14 01:24:00,74.3,63.5,29.86,SSE,157,1.7,-999.0,69,-99.99,,,0.00,Acu-Link.com,2013-06-14 06:24:00,
2013-06-14 01:40:00,73.6,64.0,29.86,SE,135,0.0,-999.0,72,-99.99,,,0.00,Acu-Link.com,2013-06-14 06:40:00,
2013-06-14 01:55:00,73.2,62.8,29.86,South,180,0.0,-999.0,70,-99.99,,,0.00,Acu-Link.com,2013-06-14 06:55:00,
2013-06-14 02:10:00,72.7,63.9,29.85,SW,225,0.0,-999.0,74,-99.99,,,0.00,Acu-Link.com,2013-06-14 07:10:00,
2013-06-14 02:26:00,72.0,64.4,29.85,East,90,0.0,-999.0,77,-99.99,,,0.00,Acu-Link.com,2013-06-14 07:26:00,
2013-06-14 02:41:00,71.4,64.2,29.85,ESE,112,0.0,-999.0,78,-99.99,,,0.00,Acu-Link.com,2013-06-14 07:41:00,
2013-06-14 02:56:00,71.4,64.9,29.85,ESE,112,1.1,-999.0,80,-99.99,,,0.00,Acu-Link.com,2013-06-14 07:56:00,
2013-06-14 03:13:00,71.4,64.9,29.85,ESE,112,2.2,-999.0,80,-99.99,,,0.00,Acu-Link.com,2013-06-14 08:13:00,
2013-06-14 03:28:00,71.4,64.9,29.84,ESE,112,1.7,-999.0,80,-99.99,,,0.00,Acu-Link.com,2013-06-14 08:28:00,
2013-06-14 03:43:00,71.1,65.3,29.84,ESE,112,0.0,-999.0,82,-99.99,,,0.00,Acu-Link.com,2013-06-14 08:43:00,
2013-06-14 03:58:00,70.5,65.1,29.85,ESE,112,0.0,-999.0,83,-99.99,,,0.00,Acu-Link.com,2013-06-14 08:58:00,
2013-06-14 04:13:00,69.8,64.7,29.85,ESE,112,0.0,-999.0,84,-99.99,,,0.00,Acu-Link.com,2013-06-14 09:13:00,
2013-06-14 04:28:00,69.3,65.3,29.86,SE,135,0.0,-999.0,87,-99.99,,,0.00,Acu-Link.com,2013-06-14 09:28:00,
2013-06-14 04:44:00,68.9,64.5,29.85,SE,135,0.0,-999.0,86,-99.99,,,0.00,Acu-Link.com,2013-06-14 09:44:00,
2013-06-14 04:59:00,68.5,65.4,29.85,ESE,112,1.7,-999.0,90,-99.99,,,0.00,Acu-Link.com,2013-06-14 09:59:00,
2013-06-14 05:15:00,68.4,65.0,29.84,ESE,112,0.0,-999.0,89,-99.99,,,0.00,Acu-Link.com,2013-06-14 10:15:00,
2013-06-14 05:30:00,68.2,64.8,29.86,ESE,112,0.0,-999.0,89,-99.99,,,0.00,Acu-Link.com,2013-06-14 10:30:00,
2013-06-14 05:46:00,68.0,65.0,29.85,ESE,112,0.0,-999.0,90,-99.99,,,0.00,Acu-Link.com,2013-06-14 10:46:00,
2013-06-14 06:01:00,68.2,64.8,29.86,ESE,112,0.0,-999.0,89,-99.99,,,0.00,Acu-Link.com,2013-06-14 11:01:00,
2013-06-14 06:16:00,68.5,65.4,29.87,ESE,112,0.0,-999.0,90,-99.99,,,0.00,Acu-Link.com,2013-06-14 11:16:00,
2013-06-14 06:32:00,68.4,65.3,29.87,ESE,112,0.0,-999.0,90,-99.99,,,0.00,Acu-Link.com,2013-06-14 11:32:00,
2013-06-14 06:47:00,68.4,65.7,29.87,ESE,112,0.0,-999.0,91,-99.99,,,0.00,Acu-Link.com,2013-06-14 11:47:00,
2013-06-14 07:02:00,69.1,65.7,29.87,SE,135,0.0,-999.0,89,-99.99,,,0.00,Acu-Link.com,2013-06-14 12:02:00,
2013-06-14 07:18:00,69.6,65.9,29.87,SE,135,0.0,-999.0,88,-99.99,,,0.00,Acu-Link.com,2013-06-14 12:18:00,
2013-06-14 07:33:00,70.0,66.3,29.88,SE,135,0.0,-999.0,88,-99.99,,,0.00,Acu-Link.com,2013-06-14 12:33:00,
2013-06-14 07:49:00,70.9,66.5,29.88,SE,135,1.7,-999.0,86,-99.99,,,0.00,Acu-Link.com,2013-06-14 12:49:00,
2013-06-14 08:04:00,71.8,67.0,29.88,ESE,112,2.2,-999.0,85,-99.99,,,0.00,Acu-Link.com,2013-06-14 13:04:00,
2013-06-14 08:20:00,73.6,67.8,29.88,SE,135,1.7,-999.0,82,-99.99,,,0.00,Acu-Link.com,2013-06-14 13:20:00,
2013-06-14 08:35:00,75.6,68.2,29.90,SSE,157,2.7,-999.0,78,-99.99,,,0.00,Acu-Link.com,2013-06-14 13:35:00,
2013-06-14 08:50:00,76.8,68.3,29.89,WSW,247,1.1,-999.0,75,-99.99,,,0.00,Acu-Link.com,2013-06-14 13:50:00,
2013-06-14 09:05:00,78.4,68.6,29.90,SSE,157,2.7,-999.0,72,-99.99,,,0.00,Acu-Link.com,2013-06-14 14:05:00,
2013-06-14 09:21:00,79.3,68.6,29.90,South,180,1.7,-999.0,70,-99.99,,,0.00,Acu-Link.com,2013-06-14 14:21:00,
2013-06-14 09:36:00,81.1,68.2,29.89,SE,135,3.2,-999.0,65,-99.99,,,0.00,Acu-Link.com,2013-06-14 14:36:00,
2013-06-14 09:52:00,80.4,67.5,29.89,West,270,1.7,-999.0,65,-99.99,,,0.00,Acu-Link.com,2013-06-14 14:52:00,
2013-06-14 10:07:00,81.5,66.3,29.88,SSE,157,2.2,-999.0,60,-99.99,,,0.00,Acu-Link.com,2013-06-14 15:07:00,
2013-06-14 10:22:00,81.1,65.9,29.87,SW,225,0.0,-999.0,60,-99.99,,,0.00,Acu-Link.com,2013-06-14 15:22:00,
2013-06-14 10:37:00,81.1,66.4,29.88,SW,225,4.7,-999.0,61,-99.99,,,0.00,Acu-Link.com,2013-06-14 15:37:00,
2013-06-14 10:53:00,81.3,66.1,29.89,WSW,247,3.7,-999.0,60,-99.99,,,0.00,Acu-Link.com,2013-06-14 15:53:00,
2013-06-14 11:08:00,82.9,67.1,29.88,SE,135,2.7,-999.0,59,-99.99,,,0.00,Acu-Link.com,2013-06-14 16:08:00,
2013-06-14 11:23:00,82.8,66.5,29.89,SSW,202,7.3,-999.0,58,-99.99,,,0.00,Acu-Link.com,2013-06-14 16:23:00,
2013-06-14 11:39:00,84.2,67.3,29.88,North,0,0.0,-999.0,57,-99.99,,,0.00,Acu-Link.com,2013-06-14 16:39:00,
2013-06-14 11:54:00,85.6,67.5,29.87,ESE,112,2.7,-999.0,55,-99.99,,,0.00,Acu-Link.com,2013-06-14 16:54:00,
2013-06-14 12:09:00,87.4,68.1,29.87,WSW,247,4.2,-999.0,53,-99.99,,,0.00,Acu-Link.com,2013-06-14 17:09:00,
2013-06-14 12:24:00,87.4,67.0,29.86,South,180,3.7,-999.0,51,-99.99,,,0.00,Acu-Link.com,2013-06-14 17:24:00,
2013-06-14 12:40:00,90.0,67.6,29.86,South,180,3.2,-999.0,48,-99.99,,,0.00,Acu-Link.com,2013-06-14 17:40:00,
2013-06-14 12:55:00,93.0,66.5,29.85,ENE,67,3.7,-999.0,42,-99.99,,,0.00,Acu-Link.com,2013-06-14 17:55:00,
2013-06-14 13:10:00,94.5,67.1,29.84,SW,225,4.2,-999.0,41,-99.99,,,0.00,Acu-Link.com,2013-06-14 18:10:00,
2013-06-14 13:26:00,94.6,67.9,29.84,ESE,112,1.7,-999.0,42,-99.99,,,0.00,Acu-Link.com,2013-06-14 18:26:00,
2013-06-14 13:41:00,92.1,67.0,29.84,SW,225,8.3,-999.0,44,-99.99,,,0.00,Acu-Link.com,2013-06-14 18:41:00,
2013-06-14 13:56:00,92.5,67.4,29.83,SSW,202,5.3,-999.0,44,-99.99,,,0.00,Acu-Link.com,2013-06-14 18:56:00,
2013-06-14 14:12:00,91.9,67.5,29.83,East,90,2.2,-999.0,45,-99.99,,,0.00,Acu-Link.com,2013-06-14 19:12:00,
2013-06-14 14:27:00,91.6,67.2,29.83,South,180,6.8,-999.0,45,-99.99,,,0.00,Acu-Link.com,2013-06-14 19:27:00,
2013-06-14 14:42:00,91.4,66.4,29.83,SSE,157,4.2,-999.0,44,-99.99,,,0.00,Acu-Link.com,2013-06-14 19:42:00,
2013-06-14 14:57:00,91.2,66.8,29.82,NE,45,4.2,-999.0,45,-99.99,,,0.00,Acu-Link.com,2013-06-14 19:57:00,
2013-06-14 15:12:00,92.1,67.0,29.83,WSW,247,3.7,-999.0,44,-99.99,,,0.00,Acu-Link.com,2013-06-14 20:12:00,
2013-06-14 15:28:00,91.0,67.3,29.83,South,180,3.2,-999.0,46,-99.99,,,0.00,Acu-Link.com,2013-06-14 20:28:00,
2013-06-14 15:43:00,91.4,67.7,29.82,SSE,157,2.7,-999.0,46,-99.99,,,0.00,Acu-Link.com,2013-06-14 20:43:00,
2013-06-14 15:58:00,94.6,67.9,29.81,SSW,202,2.7,-999.0,42,-99.99,,,0.00,Acu-Link.com,2013-06-14 20:58:00,
2013-06-14 16:14:00,91.4,67.7,29.81,SSE,157,1.7,-999.0,46,-99.99,,,0.00,Acu-Link.com,2013-06-14 21:14:00,
2013-06-14 16:29:00,92.8,66.3,29.81,SW,225,4.7,-999.0,42,-99.99,,,0.00,Acu-Link.com,2013-06-14 21:29:00,
2013-06-14 16:44:00,91.8,64.7,29.80,SE,135,2.2,-999.0,41,-99.99,,,0.00,Acu-Link.com,2013-06-14 21:44:00,
2013-06-14 17:00:00,90.1,65.9,29.80,North,0,3.7,-999.0,45,-99.99,,,0.00,Acu-Link.com,2013-06-14 22:00:00,
2013-06-14 17:15:00,89.2,65.7,29.81,SSE,157,2.7,-999.0,46,-99.99,,,0.00,Acu-Link.com,2013-06-14 22:15:00,
2013-06-14 17:30:00,91.0,66.7,29.80,SSE,157,2.2,-999.0,45,-99.99,,,0.00,Acu-Link.com,2013-06-14 22:30:00,
2013-06-14 17:45:00,88.5,66.9,29.80,SSW,202,1.7,-999.0,49,-99.99,,,0.00,Acu-Link.com,2013-06-14 22:45:00,
2013-06-14 18:02:00,88.0,67.6,29.78,SW,225,2.7,-999.0,51,-99.99,,,0.00,Acu-Link.com,2013-06-14 23:02:00,
2013-06-14 18:18:00,87.4,66.4,29.78,SSW,202,4.2,-999.0,50,-99.99,,,0.00,Acu-Link.com,2013-06-14 23:18:00,
2013-06-14 18:33:00,88.2,66.6,29.77,SW,225,4.7,-999.0,49,-99.99,,,0.00,Acu-Link.com,2013-06-14 23:33:00,
2013-06-14 18:49:00,86.4,66.7,29.78,West,270,3.2,-999.0,52,-99.99,,,0.00,Acu-Link.com,2013-06-14 23:49:00,
2013-06-14 19:04:00,86.0,66.8,29.79,South,180,3.2,-999.0,53,-99.99,,,0.00,Acu-Link.com,2013-06-15 00:04:00,
2013-06-14 19:20:00,85.3,66.7,29.79,SSW,202,3.7,-999.0,54,-99.99,,,0.00,Acu-Link.com,2013-06-15 00:20:00,
2013-06-14 19:35:00,85.5,66.9,29.79,SW,225,2.2,-999.0,54,-99.99,,,0.00,Acu-Link.com,2013-06-15 00:35:00,
2013-06-14 19:50:00,85.1,67.1,29.79,SSE,157,5.3,-999.0,55,-99.99,,,0.00,Acu-Link.com,2013-06-15 00:50:00,
2013-06-14 20:06:00,84.7,66.7,29.79,SW,225,1.7,-999.0,55,-99.99,,,0.00,Acu-Link.com,2013-06-15 01:06:00,
2013-06-14 20:21:00,83.8,66.9,29.79,SSE,157,0.0,-999.0,57,-99.99,,,0.00,Acu-Link.com,2013-06-15 01:21:00,
2013-06-14 20:36:00,83.1,66.8,29.79,South,180,0.0,-999.0,58,-99.99,,,0.00,Acu-Link.com,2013-06-15 01:36:00,
2013-06-14 20:52:00,82.2,66.9,29.80,SW,225,0.0,-999.0,60,-99.99,,,0.00,Acu-Link.com,2013-06-15 01:52:00,
2013-06-14 21:08:00,81.1,66.4,29.80,WSW,247,0.0,-999.0,61,-99.99,,,0.00,Acu-Link.com,2013-06-15 02:08:00,
2013-06-14 21:24:00,80.6,65.9,29.81,SSW,202,0.0,-999.0,61,-99.99,,,0.00,Acu-Link.com,2013-06-15 02:24:00,
2013-06-14 21:39:00,80.1,64.9,29.81,SSE,157,0.0,-999.0,60,-99.99,,,0.00,Acu-Link.com,2013-06-15 02:39:00,
2013-06-14 21:55:00,79.9,64.8,29.82,South,180,0.0,-999.0,60,-99.99,,,0.00,Acu-Link.com,2013-06-15 02:55:00,
2013-06-14 22:10:00,79.5,63.9,29.82,South,180,0.0,-999.0,59,-99.99,,,0.00,Acu-Link.com,2013-06-15 03:10:00,
2013-06-14 22:25:00,79.3,64.7,29.82,South,180,0.0,-999.0,61,-99.99,,,0.00,Acu-Link.com,2013-06-15 03:25:00,
2013-06-14 22:41:00,78.8,65.1,29.82,SE,135,0.0,-999.0,63,-99.99,,,0.00,Acu-Link.com,2013-06-15 03:41:00,
2013-06-14 22:56:00,78.6,64.9,29.82,ESE,112,0.0,-999.0,63,-99.99,,,0.00,Acu-Link.com,2013-06-15 03:56:00,
2013-06-14 23:12:00,78.1,64.9,29.83,ESE,112,0.0,-999.0,64,-99.99,,,0.00,Acu-Link.com,2013-06-15 04:12:00,
2013-06-14 23:27:00,77.7,65.0,29.84,South,180,0.0,-999.0,65,-99.99,,,0.00,Acu-Link.com,2013-06-15 04:27:00,
2013-06-14 23:42:00,77.4,65.6,29.83,WNW,292,0.0,-999.0,67,-99.99,,,0.00,Acu-Link.com,2013-06-15 04:42:00,
2013-06-14 23:58:00,77.2,65.8,29.84,SSE,157,0.0,-999.0,68,-99.99,,,0.00,Acu-Link.com,2013-06-15 04:58:00,